Tracking 19636 objects as of 24-May-2019
HD Live streaming from Space Station
objects crossing your sky now

OPS 4078 (DMSP 4B F2)

Track OPS 4078 (DMSP 4B F2) now!
10-day predictions
OPS 4078 (DMSP 4B F2) is classified as:


NORAD ID: 3510
Int'l Code: 1968-092A
Perigee: 786.6 km
Apogee: 830.1 km
Inclination: 98.3 °
Period: 100.9 minutes
Semi major axis: 7179 km
RCS: 0.6312 m2 (medium)
Launch date: October 23, 1968
Source: United States (US)
Launch site: AIR FORCE WESTERN TEST RANGE (AFWTR)
aabbcc
Your satellite tracking list
Your tracking list is empty




NASA's NSSDC Master Catalog

Two Line Element Set (TLE):
1  3510U 68092A   19143.61095238 -.00000013  00000-0  11092-4 0  9998
2  3510  98.2661 326.8680 0030248   4.6045 355.5409 14.27168656629354
Source of the keplerian elements: AFSPC